Location: San Ginesio
(43.1000°N, 13.3167°E)
Time: 22:32:30
(UTC+00:00)

Daily predictions for brighter satellites

Satellite Brightness Start Highest point End
(mag) Time Altitude Azimuth Time Altitude Azimuth Time Altitude Azimuth
MOS 1 Rocket 4.3 17:22:01 10° NE 17:25:22 21° E 17:28:39 10° SE
PSLV R/B 4.1 17:21:36 10° NNE 17:25:48 83° WNW 17:30:01 10° SSW
ARGOS 4.1 17:24:13 10° ESE 17:28:39 27° ENE 17:33:07 10° N
NOSS 2-2 (C) 4.0 17:25:38 10° SW 17:29:03 50° NW 17:32:47 10° NNE
NOSS 3-2 (A) 4.2 17:22:54 10° NNW 17:30:20 61° NE 17:38:42 10° SE
CZ-2C R/B 4.1 17:29:55 10° NE 17:33:22 17° E 17:36:50 10° SE
Cosmos 2151 Rocket 4.2 17:33:53 10° SSE 17:37:57 35° E 17:42:03 10° NNE
Lacrosse 5 rocket 3.9 17:37:54 10° NNW 17:40:02 13° N 17:42:12 10° NNE
Cosmos 1975 Rocket 3.4 17:36:57 10° NNW 17:41:16 70° W 17:45:33 10° S
HJ-1C 4.0 17:40:19 10° SE 17:43:20 34° ENE 17:46:22 10° N
COSMO-SKYMED 1 3.9 17:46:37 10° N 17:50:46 44° WNW 17:54:53 10° SW
Shenzhou-11 Module 2.6 17:49:08 10° SSW 17:50:51 22° SSE 17:51:33 18° SE
Cosmos 1805 4.5 17:48:19 10° SE 17:51:19 21° E 17:54:20 10° NE
Ariane Rocket 4.1 17:47:53 10° ESE 17:51:50 25° ENE 17:55:55 10° N
H-2A R/B 2.1 17:47:44 10° SSE 17:52:35 54° ENE 17:57:34 10° N
Nadezhda 4 Rocket 4.2 17:48:15 10° N 17:54:10 48° ENE 18:00:04 10° SSE
Exosat Rocket 3.9 17:51:45 10° S 17:56:59 42° ESE 18:01:40 10° NE
Cosmos 2263 Rocket 4.4 17:53:38 10° WSW 17:58:18 27° NW 18:03:00 10° N
USA 116 3.7 17:57:18 10° NNE 18:01:03 90° W 18:05:16 10° SSW
Cosmos 1844 Rocket 2.6 17:56:47 10° SSW 18:02:20 81° ESE 18:07:57 10° NNE
Cosmos 1707 3.2 18:02:34 10° NNW 18:06:22 62° W 18:10:08 10° S
Cosmos 2278 Rocket 4.0 18:03:18 10° SE 18:10:00 11° ENE 18:10:18 10° ENE
Cosmos 1626 3.8 18:05:25 10° NNE 18:07:28 16° ENE 18:07:28 16° ENE
CZ-2C R/B 3.4 18:06:27 10° SW 18:08:32 14° SSW 18:10:33 10° SSE
NOSS 3-2 (C) 4.1 18:01:05 10° NNW 18:08:37 67° NE 18:16:08 14° SE
Cosmos 2034 Rocket 4.0 18:03:28 10° S 18:09:46 69° E 18:16:05 10° NNE
Cosmos 1844 3.6 18:04:07 10° SSW 18:09:47 75° ESE 18:15:26 10° NNE
NOSS 3-4 (A) 3.6 18:05:48 10° S 18:11:20 45° ESE 18:17:10 10° NE
NOSS 3-4 (C) 3.6 18:05:56 10° S 18:11:27 44° ESE 18:17:16 10° NE
USA 186 2.7 18:11:03 27° E 18:11:43 29° ENE 18:14:36 10° N
ISS -1.7 18:09:22 10° WNW 18:12:07 22° NNW 18:14:49 10° NE
Meteor 2-5 Rocket 4.3 18:09:05 10° N 18:14:22 38° ENE 18:18:15 17° SE
Cosmos 1300 Rocket 4.2 18:14:17 10° SSW 18:18:38 59° W 18:23:02 10° N
Okean 1 Rocket 3.3 18:17:30 10° SSE 18:21:48 48° E 18:26:08 10° NNE
Resurs 01 Rocket 3.5 18:25:52 15° NE 18:25:52 15° NE 18:27:48 10° NNE
CENTAUR R/B 3.2 18:19:35 10° NW 18:27:45 79° NE 18:34:46 18° SE
Cosmos 1833 Rocket 3.8 18:24:07 10° N 18:28:48 26° NE 18:30:12 23° ENE
CSL-04 Rocket 4.2 18:25:19 10° S 18:30:40 60° WSW 18:36:09 10° NNW
Cosmos 1766 3.3 18:29:02 10° S 18:32:50 53° E 18:36:42 10° NNE
Okean 2 Rocket 4.5 18:29:00 10° SSW 18:33:14 41° WNW 18:37:29 10° N
YAOGAN 1 4.5 18:29:40 10° SSW 18:33:29 31° W 18:37:21 10° NNW
ATLAS 2AS CENTAUR R/B 3.0 18:25:59 10° SSW 18:33:45 63° ESE 18:41:33 10° NE
Cosmos 1025 Rocket 4.1 18:31:33 10° NNW 18:35:46 46° W 18:39:58 10° SSW
Cosmos 1634 Rocket 4.1 18:31:39 10° SSE 18:37:32 50° E 18:43:30 10° NNE
ATLAS 3B R/B 3.4 18:33:30 10° NNW 18:39:50 38° NE 18:42:34 28° E
SPOT 3 Rocket 4.3 18:40:10 31° ENE 18:40:39 31° ENE 18:45:10 10° N
Abrixas rocket 2.2 18:39:43 10° WNW 18:42:11 58° NNW 18:42:11 58° NNW
CREW DRAGON DEMO-1 DEB 3.0 18:41:32 10° NW 18:44:16 65° NNW 18:44:16 65° NNW
Cosmos 1536 Rocket 4.5 18:41:15 10° NNW 18:45:34 49° W 18:49:53 10° SSW
Cosmos 1125 Rocket 4.2 18:40:55 10° SW 18:46:08 57° WNW 18:51:24 10° NNE
Resurs 1-3 4.3 18:48:54 35° NE 18:48:54 35° NE 18:52:28 10° N
SJ-6B 2.5 18:48:31 66° E 18:48:39 67° ENE 18:52:25 10° N
CZ-4 R/B 4.5 18:48:38 10° SW 18:51:18 16° W 18:53:55 10° NW
Cosmos 1892 Rocket 4.5 18:48:24 10° N 18:51:24 32° NE 18:51:24 32° NE
Cosmos 2195 Rocket 4.3 18:49:47 10° N 18:56:04 80° E 19:00:07 23° SSE
Cosmos 2285 Rocket 4.3 18:50:32 10° SSW 18:56:47 67° WNW 19:03:09 10° NNE
Cosmos 1627 Rocket 4.4 18:51:16 10° N 18:57:41 75° E 19:01:24 27° SSE
Cosmos 1674 3.6 18:54:13 10° NNW 18:57:56 47° W 19:00:17 20° SSW
Cosmos 2026 Rocket 3.9 18:52:33 10° N 18:58:57 73° E 19:02:16 30° SSE
Cosmos 1092 Rocket 3.9 18:52:54 10° N 18:59:06 87° W 19:04:17 16° S
Cosmos 1428 Rocket 4.3 19:01:13 10° N 19:07:30 79° E 19:10:06 37° SSE
TSX-5 4.5 19:04:30 10° SW 19:08:14 59° WNW 19:13:01 10° NNE
ARGOS 4.3 19:03:38 10° S 19:08:41 42° W 19:13:48 10° NNW
Cosmos 1340 Rocket 4.1 19:15:11 31° N 19:15:11 31° N 19:17:24 10° N
Cosmos 2279 Rocket 3.9 19:12:58 53° SE 19:14:03 61° E 19:20:13 10° NNE
CZ-2C R/B 2.9 19:08:36 10° N 19:14:10 71° WNW 19:19:45 10° SSW
Cosmos 1733 4.0 19:13:47 34° SW 19:15:06 50° W 19:18:51 10° N
MOS 1 4.4 19:13:05 31° S 19:15:57 72° WSW 19:21:41 10° NNW
Lacrosse 5 rocket 3.5 19:17:33 10° NNW 19:20:43 19° NNE 19:20:43 19° NNE
Cosmos 2082 Rocket 3.0 19:16:47 10° N 19:21:17 35° NE 19:21:17 35° NE
Cosmos 2098 Rocket 4.5 19:15:58 10° N 19:21:19 41° NE 19:21:19 41° NE
DMSP B5D2-2 4.4 19:18:43 10° N 19:23:58 66° WNW 19:29:11 10° SSW
BREEZE-M R/B 4.4 19:16:37 10° W 19:24:09 43° NNW 19:24:25 42° N
BREEZE-M DEB (TANK) 4.2 19:20:43 10° WNW 19:24:38 48° SSW 19:27:36 35° SSE
OBJECT-B 3.4 19:28:48 17° NNW 19:28:48 17° NNW 19:29:43 10° NNW
Cosmos 2142 Rocket 4.4 19:24:37 32° S 19:27:47 89° E 19:34:02 10° N
Ariane Rocket 4.0 19:28:06 25° SSW 19:30:33 43° W 19:35:23 10° NNW
Milstar 3 Cent rocket 4.1 19:29:41 10° SW 19:32:39 17° SSW 19:32:39 17° SSW
USA 234 4.2 19:38:14 32° SSW 19:38:14 32° SSW 19:41:42 10° SSW
Cosmos 1626 4.3 19:39:51 10° NNW 19:42:02 26° WNW 19:42:02 26° WNW
COSMOS 2406 3.4 19:42:22 10° NNW 19:47:55 63° WSW 19:47:55 63° WSW
ISS -0.5 19:47:10 10° NW 19:47:46 13° NW 19:47:46 13° NW
Cosmos 2278 Rocket 2.7 19:44:35 10° SSW 19:51:32 52° N 19:55:53 10° NNE
Lacrosse 4 Rocket 3.7 19:51:31 10° NNW 19:52:52 20° NNW 19:52:52 20° NNW
Cosmos 909 Rocket 4.4 19:54:30 10° NNW 19:59:55 57° N 19:59:55 57° N
Resurs 01 Rocket 3.5 20:03:26 28° NNW 20:03:26 28° NNW 20:05:41 10° NNW
Cosmos 1833 Rocket 3.6 20:07:33 10° NNW 20:11:54 46° WNW 20:11:54 46° WNW
ATLAS 2AS CENTAUR R/B 4.2 20:17:51 10° WSW 20:25:12 39° NW 20:32:30 10° NNE
ATLAS 3B R/B 3.3 20:24:04 10° NW 20:29:50 51° W 20:29:50 51° W
Cosmos 2082 Rocket 4.3 21:00:59 10° NW 21:03:08 21° WNW 21:03:08 21° WNW
